Погода в Пишнуре

Россия / Кировская область     57°47′31″N   47°56′43″E
темп.,
°C
ветер,
м/с
пор.,
м/с
влажн.,
%
обл.,
%
осадки,
мм/ч
давл.,
гПа
погр.,
м
24 января, пн
пн2400:00−16зюз1110097 0.1 103416
03:00−16юз1110098 0.1 103616
06:00−13зюз129899 0.1 103637
09:00−9зюз2495100 0.1 1036256
12:00−7юз2491100 0.0 1035361
15:00−9юз249659 0.1 103584
18:00−14ююз259982 0.0 103569
21:00−15юз269985 0.0 103491
25 января, вт
вт2500:00−16ююз2710099 0.0 1033109
03:00−16ююз2910098 0.0 1031139
06:00−17ююз27100100 0.0 1030122
09:00−16ююз279614 0.0 1028135
12:00−11ююз37895 0.0 1026244
15:00−11ю39935 0.0 1024261
18:00−14ю3109638 0.0 1023211
21:00−15ю3109632 0.0 1022186
26 января, ср
ср2600:00−16ю399694 0.0 1021169
03:00−15ююв2796100 0.0 1020163
06:00−14ююв389696 0.0 1018198
09:00−12ююв3795100 0.4 1017231
12:00−10ю3591100 0.4 1017324
15:00−10ю269491 0.5 1017324
18:00−11ююв249779 0.3 1016103
21:00−11ю2497100 0.4 1016109
27 января, чт
чт2700:00−10ююз1497100 0.3 1016123
03:00−10юз2596100 0.5 1016166
06:00−11ююз2498100 0.1 1016112
09:00−11ююз2597100 0.2 1017154
12:00−9ююз2490100 0.1 1017363
15:00−9ю259580 0.3 1017277
18:00−15ю2210082 0.1 101831
21:00−15ююз269888 0.1 1018118
28 января, пт
пт2800:00−18ю2410096 0.1 101868
03:00−19ю2510091 0.1 1018103
06:00−17ююв2698100 0.1 1018145
09:00−18ююв279997 0.1 1018149
12:00−13ююв3693100 0.1 1017245
15:00−12ююв3795100 0.1 1017245
18:00−14ююв399774 0.0 1016177
21:00−14ююв31097100 0.1 1015187